Location: Killam
(52.7910°N, 111.8608°W)
Time: 08:29:38
(UTC+00:00)

NOAA 15 - Pass Details

Date: 22 December 2025
Orbit: 793 x 809 km, 98.5° (Epoch: 24 January)

Event Time Altitude Azimuth Distance (km) Brightness Sun altitude
Rises 14:16:29 0° 20° (NNE) 3,315 7.8 -11.3°
Reaches altitude 10° 14:19:00 10° 28° (NNE) 2,378 7.1 -11.0°
Maximum altitude 14:23:53 38° 96° (E) 1,203 6.2 -10.3°
Drops below altitude 10° 14:28:43 10° 164° (SSE) 2,358 7.7 -9.6°
Sets 14:31:11 0° 173° (S) 3,283 8.3 -9.3°
